KN6KS Weather Reports


Display with metric or nautical units.
time (UTC)temp
F
wind
direction
speed
MPH
gust
MPH
rain 1hr
in
rain 24hr
in
rain mn
in
humidity
%
barometer
mb
20260904032440 69 243 15.0 20.0 0.00 0.00 0.00 58 1011.0
20260904031939 69 286 15.0 17.0 0.00 0.00 0.00 59 1011.1
20260904031434 69 219 18.0 23.0 0.00 0.00 0.00 58 1011.2
20260904030930 69 249 20.0 26.0 0.00 0.00 0.00 58 1011.1
20260904030425 69 239 19.0 22.0 0.00 0.00 0.00 58 1011.0
20260904025920 69 240 13.0 16.0 0.00 0.00 0.00 58 1011.0
20260904025416 69 241 24.0 25.0 0.00 0.00 0.00 58 1010.7
20260904024916 70 246 17.0 20.0 0.00 0.00 0.00 57 1010.9
20260904024411 70 247 12.0 16.0 0.00 0.00 0.00 57 1010.7
20260904023907 70 264 17.0 20.0 0.00 0.00 0.00 57 1010.9
20260904023404 70 243 9.0 13.0 0.00 0.00 0.00 56 1010.9
20260904022902 71 257 12.0 16.0 0.00 0.00 0.00 55 1011.1
20260904022359 71 276 12.0 14.0 0.00 0.00 0.00 54 1010.9
20260904021856 71 273 13.0 20.0 0.00 0.00 0.00 54 1011.2
20260904021351 71 285 11.0 15.0 0.00 0.00 0.00 55 1011.0
20260904020846 72 284 9.0 10.0 0.00 0.00 0.00 54 1011.2
20260904020341 72 285 12.0 14.0 0.00 0.00 0.00 54 1011.1
20260904015839 72 259 14.0 17.0 0.00 0.00 0.00 53 1011.3
20260904015335 73 257 7.0 8.0 0.00 0.00 0.00 52 1011.1
20260904014834 73 295 11.0 14.0 0.00 0.00 0.00 51 1011.0
20260904014329 73 263 8.0 9.0 0.00 0.00 0.00 51 1011.1
20260904013825 73 270 10.0 11.0 0.00 0.00 0.00 51 1010.9
20260904013321 74 251 11.0 14.0 0.00 0.00 0.00 50 1011.2
20260904012816 74 278 8.0 9.0 0.00 0.00 0.00 50 1011.3
20260904012311 74 282 10.0 11.0 0.00 0.00 0.00 50 1011.0
20260904011809 74 242 15.0 18.0 0.00 0.00 0.00 48 1010.9
20260904011259 75 274 13.0 18.0 0.00 0.00 0.00 48 1011.0
20260904010759 75 257 14.0 17.0 0.00 0.00 0.00 47 1011.2
20260904010256 76 282 13.0 16.0 0.00 0.00 0.00 47 1011.1
20260904005751 75 248 12.0 14.0 0.00 0.00 0.00 46 1011.0
20260904005247 76 240 6.0 8.0 0.00 0.00 0.00 46 1010.9
20260904004741 76 252 14.0 17.0 0.00 0.00 0.00 46 1011.1
20260904004238 76 232 13.0 16.0 0.00 0.00 0.00 46 1011.0
20260904003732 76 268 9.0 11.0 0.00 0.00 0.00 46 1011.1
20260904003228 76 282 8.0 10.0 0.00 0.00 0.00 47 1011.1
20260904002723 77 241 15.0 21.0 0.00 0.00 0.00 46 1011.1
20260904002220 77 236 6.0 7.0 0.00 0.00 0.00 46 1011.1
20260904001714 78 248 12.0 13.0 0.00 0.00 0.00 45 1011.1
20260904001214 77 231 11.0 14.0 0.00 0.00 0.00 44 1011.0
20260904000709 77 263 14.0 17.0 0.00 0.00 0.00 43 1011.2
20260904000204 77 258 17.0 18.0 0.00 0.00 0.00 44 1011.1
20260903235703 78 252 17.0 24.0 0.00 0.00 0.00 43 1011.0
20260903235200 78 203 15.0 18.0 0.00 0.00 0.00 43 1011.0
20260903234654 78 243 13.0 15.0 0.00 0.00 0.00 43 1011.0
20260903234150 79 224 15.0 18.0 0.00 0.00 0.00 42 1011.0
20260903233646 78 253 16.0 21.0 0.00 0.00 0.00 43 1011.1
20260903233142 78 212 12.0 21.0 0.00 0.00 0.00 42 1010.9
20260903232636 78 250 17.0 20.0 0.00 0.00 0.00 43 1011.0
20260903232132 79 228 20.0 24.0 0.00 0.00 0.00 41 1011.3
20260903231631 78 216 14.0 18.0 0.00 0.00 0.00 41 1010.9
20260903231126 79 261 16.0 22.0 0.00 0.00 0.00 40 1010.9
20260903230622 79 225 18.0 24.0 0.00 0.00 0.00 39 1011.4
20260903230121 78 239 10.0 14.0 0.00 0.00 0.00 40 1011.1
20260903225618 79 240 20.0 24.0 0.00 0.00 0.00 37 1011.3
20260903225114 79 240 17.0 22.0 0.00 0.00 0.00 37 1011.1
20260903224610 79 238 19.0 22.0 0.00 0.00 0.00 37 1011.3
20260903224106 78 218 15.0 20.0 0.00 0.00 0.00 35 1011.1
20260903223601 79 227 14.0 16.0 0.00 0.00 0.00 35 1011.4
20260903223059 79 244 18.0 22.0 0.00 0.00 0.00 33 1011.5
20260903222554 79 238 10.0 13.0 0.00 0.00 0.00 37 1011.4
20260903222053 79 213 11.0 14.0 0.00 0.00 0.00 34 1011.6
20260903221549 79 235 13.0 17.0 0.00 0.00 0.00 35 1011.5
20260903221046 78 235 25.0 32.0 0.00 0.00 0.00 35 1011.4
20260903220540 79 250 13.0 16.0 0.00 0.00 0.00 34 1011.4
20260903220039 79 251 22.0 24.0 0.00 0.00 0.00 33 1011.5
20260903215539 79 221 19.0 23.0 0.00 0.00 0.00 33 1011.7
20260903215038 78 240 19.0 23.0 0.00 0.00 0.00 34 1011.4
20260903214533 79 229 16.0 18.0 0.00 0.00 0.00 34 1011.6
20260903214028 80 223 15.0 18.0 0.00 0.00 0.00 32 1011.6
20260903213523 79 251 14.0 17.0 0.00 0.00 0.00 35 1011.5
20260903213019 79 261 23.0 26.0 0.00 0.00 0.00 34 1011.8
20260903212515 79 264 14.0 17.0 0.00 0.00 0.00 34 1011.6
20260903212015 78 209 18.0 20.0 0.00 0.00 0.00 34 1011.6
20260903211510 79 258 7.0 8.0 0.00 0.00 0.00 33 1011.9
20260903211007 79 351 19.0 20.0 0.00 0.00 0.00 32 1011.7
20260903210507 79 226 21.0 25.0 0.00 0.00 0.00 33 1011.6
20260903210002 80 246 17.0 20.0 0.00 0.00 0.00 31 1011.6
20260903205455 79 240 17.0 20.0 0.00 0.00 0.00 30 1011.6
20260903204950 79 247 15.0 17.0 0.00 0.00 0.00 32 1011.6
20260903204447 79 237 17.0 20.0 0.00 0.00 0.00 31 1011.8
20260903203942 79 252 21.0 25.0 0.00 0.00 0.00 29 1011.7
20260903203438 79 294 17.0 21.0 0.00 0.00 0.00 32 1011.7
20260903202937 78 227 19.0 22.0 0.00 0.00 0.00 32 1011.5
20260903202433 78 282 11.0 18.0 0.00 0.00 0.00 32 1011.5
20260903201933 79 258 15.0 20.0 0.00 0.00 0.00 31 1011.9
20260903201429 78 240 16.0 22.0 0.00 0.00 0.00 32 1011.8
20260903200927 78 303 20.0 22.0 0.00 0.00 0.00 33 1011.9
20260903200422 79 234 10.0 15.0 0.00 0.00 0.00 32 1012.1
20260903195917 79 264 21.0 25.0 0.00 0.00 0.00 33 1012.2
20260903195414 79 244 14.0 17.0 0.00 0.00 0.00 32 1012.1
20260903194908 78 244 16.0 21.0 0.00 0.00 0.00 32 1012.2
20260903194404 79 207 14.0 17.0 0.00 0.00 0.00 31 1012.4
20260903193859 78 231 8.0 9.0 0.00 0.00 0.00 31 1012.5
20260903193355 79 235 19.0 24.0 0.00 0.00 0.00 30 1012.1
20260903192850 79 239 14.0 17.0 0.00 0.00 0.00 30 1012.6
20260903192346 79 222 15.0 21.0 0.00 0.00 0.00 29 1012.6
20260903191843 79 248 20.0 22.0 0.00 0.00 0.00 29 1012.2
20260903191338 79 189 9.0 11.0 0.00 0.00 0.00 29 1012.7
20260903190837 79 252 15.0 18.0 0.00 0.00 0.00 30 1012.7
20260903190332 79 244 11.0 15.0 0.00 0.00 0.00 29 1012.6
20260903185831 78 237 13.0 17.0 0.00 0.00 0.00 30 1012.6
20260903185327 79 261 16.0 20.0 0.00 0.00 0.00 30 1012.7
20260903184822 79 197 15.0 17.0 0.00 0.00 0.00 29 1012.8
20260903184320 78 241 10.0 11.0 0.00 0.00 0.00 30 1012.9
20260903183814 77 244 13.0 21.0 0.00 0.00 0.00 30 1013.0
20260903183308 77 222 8.0 10.0 0.00 0.00 0.00 30 1013.0
20260903182808 77 242 12.0 16.0 0.00 0.00 0.00 30 1013.1
20260903182302 77 233 18.0 22.0 0.00 0.00 0.00 30 1013.1
20260903181801 77 258 16.0 20.0 0.00 0.00 0.00 30 1013.0
20260903181256 77 251 16.0 22.0 0.00 0.00 0.00 31 1013.2
20260903180751 77 247 11.0 13.0 0.00 0.00 0.00 31 1013.2
20260903180250 76 243 9.0 11.0 0.00 0.00 0.00 31 1013.2
20260903175744 76 247 17.0 18.0 0.00 0.00 0.00 31 1013.3
20260903175244 76 232 17.0 23.0 0.00 0.00 0.00 30 1012.9
20260903174743 76 260 15.0 20.0 0.00 0.00 0.00 32 1013.0
20260903174239 76 258 13.0 17.0 0.00 0.00 0.00 32 1013.0
20260903173734 75 302 12.0 14.0 0.00 0.00 0.00 32 1013.0
20260903173230 76 259 15.0 18.0 0.00 0.00 0.00 32 1012.8
20260903172730 76 248 11.0 14.0 0.00 0.00 0.00 32 1013.1
20260903172225 75 250 9.0 10.0 0.00 0.00 0.00 33 1013.4
20260903171720 75 234 11.0 17.0 0.00 0.00 0.00 33 1013.3
20260903171216 75 260 14.0 17.0 0.00 0.00 0.00 34 1013.3
20260903170714 75 242 14.0 16.0 0.00 0.00 0.00 33 1013.5
20260903170210 74 236 11.0 15.0 0.00 0.00 0.00 33 1013.2
20260903165708 74 245 13.0 14.0 0.00 0.00 0.00 33 1013.0
20260903165203 74 208 8.0 13.0 0.00 0.00 0.00 34 1013.1
20260903164657 74 276 11.0 13.0 0.00 0.00 0.00 34 1013.2
20260903164154 74 257 7.0 9.0 0.00 0.00 0.00 34 1013.1
20260903163653 75 136 4.0 5.0 0.00 0.00 0.00 33 1013.3
20260903163150 75 253 0.0 0.0 0.00 0.00 0.00 33 1013.0
20260903162645 75 355 2.0 2.0 0.00 0.00 0.00 33 1013.1
20260903162141 74 339 3.0 3.0 0.00 0.00 0.00 33 1013.5
20260903161636 73 188 4.0 5.0 0.00 0.00 0.00 33 1013.2
20260903161132 73 105 1.0 2.0 0.00 0.00 0.00 34 1013.4
20260903160627 72 0 3.0 5.0 0.00 0.00 0.00 34 1013.4
20260903160121 72 320 5.0 7.0 0.00 0.00 0.00 34 1013.3
20260903155620 72 245 1.0 2.0 0.00 0.00 0.00 35 1013.2
20260903155115 72 239 8.0 10.0 0.00 0.00 0.00 34 1013.2
20260903154611 71 294 3.0 3.0 0.00 0.00 0.00 34 1013.2
20260903154108 71 304 5.0 7.0 0.00 0.00 0.00 35 1013.5
20260903153603 71 254 5.0 6.0 0.00 0.00 0.00 35 1013.5
20260903153058 70 242 3.0 3.0 0.00 0.00 0.00 36 1013.3
20260903152554 69 253 2.0 2.0 0.00 0.00 0.00 36 1013.6
20260903152050 69 246 4.0 5.0 0.00 0.00 0.00 36 1013.6
20260903151549 69 38 6.0 7.0 0.00 0.00 0.00 36 1013.4
20260903151045 68 341 6.0 7.0 0.00 0.00 0.00 37 1013.4
20260903150544 68 320 5.0 6.0 0.00 0.00 0.00 37 1013.6
20260903150040 68 317 3.0 5.0 0.00 0.00 0.00 37 1013.4
20260903145534 67 308 5.0 6.0 0.00 0.00 0.00 38 1013.6
20260903145029 67 302 5.0 7.0 0.00 0.00 0.00 38 1013.5
20260903144528 67 294 8.0 9.0 0.00 0.00 0.00 38 1013.6
20260903144025 66 207 3.0 3.0 0.00 0.00 0.00 39 1013.3
20260903143520 65 274 7.0 8.0 0.00 0.00 0.00 40 1013.4
20260903143016 65 306 6.0 7.0 0.00 0.00 0.00 41 1013.5
20260903142511 65 326 3.0 3.0 0.00 0.00 0.00 41 1013.4
20260903142008 64 35 2.0 3.0 0.00 0.00 0.00 42 1013.5
20260903141504 64 64 3.0 3.0 0.00 0.00 0.00 43 1013.4
20260903140958 63 233 1.0 2.0 0.00 0.00 0.00 45 1013.4
20260903140453 63 288 4.0 5.0 0.00 0.00 0.00 45 1013.3
20260903135943 63 326 4.0 6.0 0.00 0.00 0.00 45 1013.2
20260903135438 62 260 2.0 3.0 0.00 0.00 0.00 45 1013.3
20260903134933 62 140 0.0 1.0 0.00 0.00 0.00 46 1013.4
20260903134432 63 321 1.0 2.0 0.00 0.00 0.00 45 1013.2
20260903133929 63 261 4.0 6.0 0.00 0.00 0.00 45 1013.4
20260903133426 64 316 4.0 6.0 0.00 0.00 0.00 43 1013.2
20260903132921 64 244 1.0 1.0 0.00 0.00 0.00 43 1013.4
20260903132416 65 256 3.0 5.0 0.00 0.00 0.00 42 1013.1
20260903131917 65 243 6.0 7.0 0.00 0.00 0.00 41 1013.3
20260903131417 65 238 9.0 9.0 0.00 0.00 0.00 40 1013.3
20260903130915 65 253 2.0 2.0 0.00 0.00 0.00 40 1013.4
20260903130411 66 252 4.0 5.0 0.00 0.00 0.00 40 1013.1
20260903125910 66 5 2.0 2.0 0.00 0.00 0.00 39 1013.4
20260903125410 66 295 2.0 2.0 0.00 0.00 0.00 39 1013.2
20260903124904 66 299 5.0 6.0 0.00 0.00 0.00 40 1013.0
20260903124359 66 247 4.0 6.0 0.00 0.00 0.00 40 1013.0
20260903123858 66 234 3.0 5.0 0.00 0.00 0.00 40 1013.2
20260903123353 65 262 4.0 5.0 0.00 0.00 0.00 40 1013.4
20260903122851 66 304 8.0 9.0 0.00 0.00 0.00 39 1013.2
20260903122346 64 284 9.0 9.0 0.00 0.00 0.00 39 1013.3
20260903121845 64 298 5.0 6.0 0.00 0.00 0.00 41 1013.3
20260903121340 65 338 5.0 7.0 0.00 0.00 0.00 39 1013.3
20260903120836 65 310 5.0 6.0 0.00 0.00 0.00 40 1013.2
20260903120335 65 278 6.0 7.0 0.00 0.00 0.00 38 1013.2
20260903115833 64 310 5.0 6.0 0.00 0.00 0.00 40 1013.2
20260903115329 64 295 7.0 8.0 0.00 0.00 0.00 40 1013.4
20260903114828 65 271 6.0 7.0 0.00 0.00 0.00 40 1013.4
20260903114324 65 338 11.0 11.0 0.00 0.00 0.00 39 1013.5
20260903113819 65 326 8.0 9.0 0.00 0.00 0.00 39 1013.4
20260903113315 66 303 8.0 10.0 0.00 0.00 0.00 39 1013.3
20260903112810 65 332 10.0 13.0 0.00 0.00 0.00 39 1013.5
20260903112306 65 349 11.0 11.0 0.00 0.00 0.00 40 1013.3
20260903111805 65 334 9.0 14.0 0.00 0.00 0.00 42 1013.2
20260903111300 65 314 10.0 13.0 0.00 0.00 0.00 42 1013.2
20260903110756 64 290 8.0 9.0 0.00 0.00 0.00 43 1013.4
20260903110252 65 333 12.0 14.0 0.00 0.00 0.00 43 1013.8
20260903105751 65 314 10.0 13.0 0.00 0.00 0.00 42 1013.4
20260903105246 65 318 10.0 13.0 0.00 0.00 0.00 43 1013.5
20260903104746 65 329 9.0 10.0 0.00 0.00 0.00 43 1013.5
20260903104241 65 334 8.0 9.0 0.00 0.00 0.00 42 1013.4
20260903103737 66 307 9.0 10.0 0.00 0.00 0.00 41 1013.4
20260903103233 65 358 6.0 8.0 0.00 0.00 0.00 42 1013.4
20260903102728 66 318 11.0 14.0 0.00 0.00 0.00 42 1013.6
20260903102222 66 332 12.0 15.0 0.00 0.00 0.00 42 1013.6
20260903101721 66 18 12.0 14.0 0.00 0.00 0.00 42 1013.5
20260903101218 66 276 11.0 13.0 0.00 0.00 0.00 42 1013.5
20260903100718 66 301 11.0 13.0 0.00 0.00 0.00 43 1013.3
20260903100218 66 302 9.0 10.0 0.00 0.00 0.00 43 1013.8
20260903095715 66 304 9.0 10.0 0.00 0.00 0.00 43 1013.6
20260903095210 67 290 6.0 8.0 0.00 0.00 0.00 43 1013.9
20260903094705 67 255 7.0 8.0 0.00 0.00 0.00 43 1013.9
20260903094200 67 259 11.0 13.0 0.00 0.00 0.00 42 1013.8
20260903093655 67 237 9.0 10.0 0.00 0.00 0.00 42 1013.6
20260903093151 67 221 14.0 17.0 0.00 0.00 0.00 41 1013.9
20260903092645 67 262 11.0 13.0 0.00 0.00 0.00 41 1014.2